Home   Weather   Affoltern am Albis   Past weeks

Flag for Switzerland Past Weather in Affoltern am Albis, Zurich, Switzerland — Yesterday and Last 2 Weeks

Now
46 °F

Cool.


Feels Like: 43 °F
Forecast: 33 / 57 °F
Wind: 5 mph from Southwest

Location: Zuerich-Fluntern

Current Time: Apr 29, 2017 at 11:54:04 am

Latest Report: Apr 29, 2017 at 11:00 am


Visibility: N/A

Pressure: 30.09 "Hg

Humidity: 73%

Dew Point: 37 °F

Location of Affoltern am AlbisLocation

Past Weather in Affoltern am Albis — Graph

°F

Affoltern am Albis Temperature Yesterday

Maximum temperature yesterday: 40 °F (at 6:00 pm)
Minimum temperature yesterday: 32 °F (at 3:00 am)
Average temperature yesterday: 35 °F

High & Low Weather Summary for the Past Weeks

 TemperatureHumidityPressure
High66 °F (Apr 24, 5:00 pm)100% (Apr 26, 10:00 am)30.57 "Hg (Apr 26, 10:00 am)
Low28 °F (Apr 20, 6:00 am)26% (Apr 21, 6:00 pm)29.74 "Hg (Apr 26, 12:00 am)
Average43 °F73%30.14 "Hg
* Reported Apr 14 10:00 am — Apr 29 10:00 am, Affoltern am Albis, Weather by CustomWeather, © 2017

Note: Actual official high and low records may vary slightly from our data, if they occured in-between our weather recording intervals... More about our weather records

Advertising

Affoltern am Albis Weather History for the Previous 24 Hours

Scroll right to see more
 ConditionsComfort  
Time TempWeatherWind HumidityBarometerVisibility
10:00 am
Sat, Apr 29
42 °FQuite cool.1 mph83%30.12 "HgN/A
9:00 am37 °FChilly.2 mph87%30.14 "HgN/A
8:00 am35 °FChilly.1 mph92%30.15 "HgN/A
7:00 am33 °FChilly.1 mph97%30.16 "HgN/A
6:00 am33 °FChilly.1 mph96%30.16 "HgN/A
5:00 am34 °FChilly.2 mph95%30.16 "HgN/A
4:00 am34 °FChilly.2 mph96%30.16 "HgN/A
3:00 am35 °FChilly.3 mph95%30.15 "HgN/A
2:00 am35 °FChilly.2 mph95%30.16 "HgN/A
1:00 am36 °FChilly.2 mph89%30.15 "HgN/A
12:00 am36 °FChilly.2 mph90%30.15 "HgN/A
11:00 pm
Fri, Apr 28
36 °FChilly.3 mph91%30.14 "HgN/A
10:00 pm36 °FChilly.5 mph92%30.14 "HgN/A
9:00 pm36 °FChilly.6 mph90%30.13 "HgN/A
8:00 pm37 °FOvercast.8 mph93%30.10 "HgN/A
7:00 pm39 °FChilly.7 mph85%30.08 "HgN/A
6:00 pm40 °FQuite cool.7 mph82%30.07 "HgN/A
5:00 pm40 °FChilly.6 mph85%30.06 "HgN/A
4:00 pm38 °FChilly.6 mph91%30.06 "HgN/A
3:00 pm37 °FChilly.6 mph94%30.05 "HgN/A
2:00 pm36 °FOvercast.2 mph91%30.04 "HgN/A
1:00 pm39 °FChilly.1 mph89%30.01 "HgN/A
12:00 pm38 °FChilly.2 mph92%29.99 "HgN/A
11:00 am36 °FChilly.2 mph94%29.98 "HgN/A
Weather by CustomWeather, © 2017

See weather overviewHow to use our weather pages